Regional Weather Roundup
Issued by NWS State College, PA

Home | Current Version | Previous Version | Text Only | Print | Product List | Glossary On
Versions: 1 2 3 4 5 6 7 8 9 10 11 12 13 14 15 16 17 18 19 20 21 22 23 24 25 26 27 28 29 30 31 32 33 34 35 36 37 38 39 40 41 42 43 44 45 46 47 48 49 50
000
ASUS41 KCTP 281710
RWRCTP

REGIONAL WEATHER ROUNDUP
NATIONAL WEATHER SERVICE STATE COLLEGE PA
100 PM EDT SAT MAR 28 2015

Note: "fair" indicates few or no clouds below 12,000 feet with no
significant weather and/or obstructions to visibility.

* = STATION THAT DOES NOT REPORT PRECIPITATION /E.G. RAIN...SNOW...ETC/
    THUNDER OR FOG.

PAZ002>004-007>009-013>016-020>023-029>032-281800-
WESTERN PENNSYLVANIA

CITY           SKY/WX    TMP DP  RH WIND       PRES   REMARKS
ERIE           SUNNY     21   3  45 N7        30.22R WCI  12
MEADVILLE      CLOUDY    19   8  62 NW9       30.13S WCI   8
FRANKLIN*      CLOUDY    18   7  62 NW10G16   30.12S WCI   6
NEW CASTLE     CLOUDY    21   9  60 NW8G16    30.18S WCI  11
BEAVER COUNTY  CLOUDY    21   9  58 NW6       30.15S WCI  14
BUTLER*        CLOUDY    21  10  63 NW8G16    30.15S WCI  12
PITTSBURGH INT FLURRIES  23   7  50 N15       30.14S WCI  10
PITTSBURGH     CLOUDY    20   4  50 NW12G21   30.13R WCI   8
INDIANA*       CLOUDY    21  10  63 NW12G20   30.11S WCI   9
LATROBE        PTSUNNY   23   9  54 NW17      30.13S WCI   9
WASHINGTON CO* PTSUNNY   25  10  54 NW12G18   30.16S WCI  14
$$

PAZ004>006-010>012-017>019-024>028-033>037-041-042-045-046-049>053-281800-
CENTRAL PENNSYLVANIA

CITY           SKY/WX    TMP DP  RH WIND       PRES   REMARKS
BRADFORD       MOSUNNY   19   5  54 NW16      29.98S WCI   4
DUBOIS         CLOUDY    22   9  57 NW17G25   30.01S WCI   8
CLEARFIELD     FLURRIES  22  10  60 NW15      30.02S WCI   9
JOHNSTOWN      CLOUDY    17   7  64 NW13G24   29.97S WCI   4
ALTOONA        PTSUNNY   26   9  48 NW18G28   30.00S WCI  13
STATE COLLEGE  CLOUDY    27  10  50 NW12      29.99F
WILLIAMSPORT   CLOUDY    31   9  39 NW17      30.00S
SELINSGROVE    CLOUDY    30  14  51 NW15G24   30.00F
FT INDIANTOWN  CLOUDY    31  10  42 NW14G21   29.96S
CAPITAL CITY   PTSUNNY   31  17  56 N13G20    30.00S
HARRISBURG     FLURRIES  32  21  64 NW20G28   29.99S
YORK           CLOUDY    31  15  52 N15G23    29.98S
$$

PAZ038>040-043-044-047-048-054-055-060>062-067>071-281800-
EASTERN PENNSYLVANIA

CITY           SKY/WX    TMP DP  RH WIND       PRES   REMARKS
SCRANTON       CLOUDY    28  11  48 N10G25    29.92S
MOUNT POCONO   PTSUNNY   26  11  52 NW15G30   29.80S WCI  14
ALLENTOWN      CLOUDY    35  15  44 N14G25    29.90S
QUAKERTOWN*    CLOUDY    34  16  47 N12G22    29.89R
READING        PTSUNNY   36  14  40 NW16      29.92F
LANCASTER      CLOUDY    34  16  47 NW17G28   29.94F
COATESVILLE    MOSUNNY   32  18  55 NW21G28   29.90S
POTTSTOWN      CLOUDY    35  16  45 NW17G23   29.91F
BLUE BELL      MOSUNNY   36  21  55 NW10G17   29.88S
DOYLESTOWN     CLOUDY    36  16  44 NW14G24   29.86F
WILLOW GROVE   NOT AVBL
NORTH PHILA    CLOUDY    40  16  37 NW18G24   29.89S
PHILADELPHIA   PTSUNNY   39  17  41 N15G25    29.90S
$$


USA.gov is the U.S. government's official web portal to all federal, state and local government web resources and services.